RH
79 93 96 97 96 96 94 86 91 89 85 83 75 71 72 74 76 82 75 72 76 75 75 82 85 86 82 87 84 84 91 99 100 92 87 95 90 92 92 99 100 100 96
65 80 86 88 90 94 90 89 90 92 88 85 78 74 78 79 82 83 84 86 85 85 83 85 86 75 90 90 83 80 77 70 95 96 97 99 95 98 98 100 100 94 95
67 70 79 82 88 86 83 89 91 90 92 90 89 89 84 87 88 88 88 88 88 86 88 88 92 87 92 90 80 81 78 65 80 100 99 100 100 100 100 99 99 99 97
69 70 75 69 56 60 70 79 83 89 91 92 91 91 90 90 90 90 88 87 86 87 90 92 84 99 74 77 88 92 85 87 90 100 100 99 100 100 100 99 100 100 99
69 69 71 66 66 81 85 86 85 89 84 85 89 91 90 92 89 89 89 84 84 85 86 94 91 89 88 99 98 96 86 90 94 100 100 100 100 98 99 100 100 100 97
70 70 70 76 84 84 85 86 88 88 92 92 87 89 92 92 88 86 88 88 89 86 88 96 99 98 84 98 100 100 99 100 100 100 100 100 100 100 100 100 100 97 85
63 69 70 73 79 83 87 88 90 88 92 91 89 90 87 90 90 85 88 91 95 96 95 97 88 87 100 100 100 100 100 100 100 100 100 100 100 100 99 100 96 91 69
55 63 67 71 74 79 85 87 88 90 90 90 93 93 92 93 92 92 96 94 96 96 96 98 99 100 100 100 100 100 100 100 100 100 97 100 100 100 100 98 91 63 53
46 56 64 66 70 73 78 82 86 88 90 93 96 96 95 95 95 95 98 100 100 100 100 100 100 100 100 100 100 100 100 98 100 100 100 99 100 99 94 66 42 32 50
35 47 58 62 66 70 74 80 85 90 92 94 98 96 97 97 100 100 100 100 100 100 100 100 100 100 100 100 100 100 100 100 100 99 98 98 95 71 50 27 10 22 44
38 41 55 62 64 70 75 80 88 93 99 100 100 100 100 99 100 100 100 100 100 100 100 100 100 100 100 100 100 100 100 99 98 97 96 93 78 43 27 18 20 26 46
59 52 55 62 69 75 78 81 92 99 100 100 98 100 100 100 99 99 100 100 100 100 100 100 100 99 99 98 99 99 98 97 96 93 77 46 45 54 73 77 87 92 86
95 76 70 75 84 90 95 99 99 100 100 100 100 100 99 98 100 97 98 100 100 100 100 100 100 99 98 98 97 97 97 94 94 88 92 95 96 95 94 94 94 87 93
100 100 100 100 100 100 100 100 100 100 100 100 100 100 99 100 100 99 100 100 100 100 100 98 98 98 97 97 96 96 95 94 95 95 95 95 95 96 97 98 96 100 98
100 100 100 100 100 100 100 100 100 100 100 100 100 100 100 99 100 100 99 99 98 98 98 97 96 96 95 95 93 93 94 95 96 98 95 97 100 100 100 100 100 100 100
100 100 100 99 99 100 100 100 100 100 100 100 99 100 98 98 97 97 97 97 96 96 96 94 93 93 93 94 97 97 99 99 99 98 100 100 100 100 100 100 100 100 100
99 99 100 99 98 100 100 99 99 100 98 98 98 97 97 96 96 97 96 96 96 95 95 95 95 95 96 96 98 100 100 100 99 100 100 100 100 100 100 100 99 96 94
99 100 99 98 98 95 96 98 96 96 96 95 96 96 96 96 96 96 95 94 94 95 95 95 95 95 95 97 98 100 100 100 100 100 100 100 100 100 100 99 96 97 98
97 97 97 98 96 96 97 96 96 96 95 94 96 95 95 95 95 95 95 94 95 95 96 98 98 100 100 100 100 100 100 100 100 100 100 100 100 100 100 100 99 96 98
97 97 96 96 97 95 97 96 95 95 94 94 95 96 100 94 94 95 96 98 100 100 100 100 100 100 100 100 100 100 100 100 100 100 100 100 100 100 100 100 100 100 100
96 96 96 96 97 98 97 96 96 95 94 95 95 96 100 100 100 100 100 100 100 100 100 100 100 100 100 100 100 100 100 100 100 100 100 100 100 100 100 100 100 100 100
94 95 95 95 96 99 100 100 100 100 100 100 100 100 100 100 100 100 100 100 100 100 100 100 100 100 100 100 100 100 100 100 100 100 100 100 100 100 100 100 100 100 100
96 100 100 100 100 100 100 100 100 100 100 100 100 100 100 100 100 100 100 100 100 100 98 100 100 90 100 77 74 100 100 100 100 100 100 100 100 100 100 100 100 100 100
100 91 93 100 100 100 100 100 98 100 100 100 100 100 100 100 100 100 100 99 87 96 89 61 58 57 50 50 58 59 78 81 66 66 76 100 100 100 100 100 100 100 100
100 100 100 100 100 100 100 100 100 100 100 100 100 100 100 100 100 100 100 95 47 47 51 55 60 58 57 53 55 58 62 64 67 67 65 68 98 100 100 100 100 100 100
100 100 100 100 100 100 100 100 100 100 100 100 100 100 100 100 100 100 100 98 49 47 61 70 57 56 56 60 78 64 68 66 64 62 67 80 90 100 100 100 100 100 100
Wind_Speed
30 31 32 41 41 41 42 48 44 42 47 47 45 48 49 49 47 43 46 47 44 44 44 40 39 38 39 40 40 35 34 37 41 39 36 34 37 38 37 34 36 35 31
33 33 34 33 37 43 46 47 48 44 44 43 47 44 45 47 46 46 45 45 45 45 44 43 45 46 43 44 39 35 28 33 30 37 38 39 41 34 33 32 33 31 30
33 36 39 41 41 43 45 48 48 49 47 46 44 44 48 46 44 46 46 46 45 45 45 45 44 46 44 44 42 42 37 36 37 40 42 40 35 33 33 32 31 30 28
33 36 39 44 45 46 46 47 48 49 48 49 48 48 49 48 47 48 46 46 46 46 48 48 46 43 43 43 44 44 40 36 37 40 39 35 32 31 31 32 30 29 27
36 37 43 46 46 41 42 43 46 45 48 46 46 48 48 47 49 47 45 46 47 51 47 44 46 42 42 39 44 40 37 37 37 38 36 36 31 32 29 28 28 25 23
36 43 43 39 40 43 43 45 43 44 44 44 44 44 45 46 47 46 45 42 45 42 40 40 41 38 40 44 44 37 37 39 37 37 36 36 29 28 27 24 23 21 18
37 41 39 41 41 44 44 40 43 44 41 43 44 44 44 42 42 43 43 43 40 40 43 44 44 43 42 39 41 41 38 35 30 30 31 30 27 23 23 21 20 19 19
33 36 37 39 42 40 40 42 42 42 42 41 40 39 38 38 39 39 38 38 38 41 47 47 44 39 37 37 37 35 31 29 28 24 24 26 22 21 19 17 15 18 21
32 35 36 38 39 38 39 42 41 39 37 36 33 33 35 36 38 38 37 39 40 41 43 43 38 34 32 31 32 29 27 24 24 22 22 18 15 14 11 12 16 15 18
31 35 35 32 35 37 37 35 35 33 34 38 35 36 35 34 35 34 34 36 39 39 38 35 32 29 30 28 26 27 25 22 18 17 14 12 11 9 10 15 16 18 16
26 27 29 32 33 33 30 29 38 42 40 36 36 34 31 30 31 30 30 27 27 31 29 25 21 20 21 24 23 20 15 12 10 8 7 8 10 9 10 13 14 17 18
23 21 28 31 33 36 41 42 37 36 35 34 32 28 22 22 23 17 14 17 18 20 19 17 17 17 18 15 12 10 9 7 5 5 6 6 8 9 8 12 17 19 18
22 25 30 33 31 32 32 33 33 32 30 29 25 22 18 16 14 15 11 9 10 15 17 18 18 16 12 12 8 5 5 3 5 7 9 11 13 15 18 19 18 17 19
17 20 23 25 26 25 25 27 29 28 26 25 24 21 19 17 16 18 18 17 18 20 20 18 15 9 5 2 2 4 5 7 8 10 12 14 15 14 14 15 18 20 23
15 18 22 23 23 25 25 22 22 22 21 21 22 22 23 21 19 18 17 18 17 14 12 8 5 3 4 4 5 7 8 8 7 9 11 12 13 14 14 15 15 16 18
14 17 22 27 24 25 29 29 21 20 20 20 21 18 22 21 18 15 14 11 8 8 8 7 6 4 3 2 2 2 5 5 9 10 10 11 12 13 14 15 16 17 18
17 24 28 33 30 31 34 37 40 33 30 27 23 22 21 20 17 15 13 9 7 6 7 7 6 4 3 2 1 2 3 7 11 9 11 11 13 15 16 17 17 18 20
24 28 30 31 30 31 27 34 31 29 30 30 25 22 19 16 13 14 13 8 8 8 7 7 5 4 4 2 1 4 7 9 8 10 12 13 14 15 17 17 18 19 19
27 32 31 31 30 30 26 29 28 28 28 27 21 18 16 14 12 12 11 9 9 9 7 5 3 3 3 4 6 7 9 9 11 11 12 13 14 15 16 17 17 19 20
27 28 27 26 26 25 23 24 23 21 21 20 19 15 11 8 10 10 10 9 8 7 7 6 5 4 4 5 7 8 8 9 10 11 12 13 13 14 15 16 16 18 18
23 23 22 22 23 21 20 20 19 17 18 17 16 13 10 9 10 9 9 9 8 7 6 5 4 5 6 6 6 7 8 8 9 10 12 12 13 14 14 15 16 17 19
17 17 18 19 19 18 17 17 18 16 16 15 13 12 12 10 9 8 8 8 7 5 5 5 5 5 5 5 6 7 8 9 10 10 11 12 13 13 14 15 16 17 18
15 16 17 17 16 15 15 16 15 15 14 12 10 9 8 8 7 7 6 6 6 6 7 6 5 6 6 9 9 9 9 10 11 12 13 13 13 14 14 15 16 17 18
15 15 15 14 13 13 13 13 12 13 11 11 10 9 8 8 7 7 6 6 5 5 7 8 8 10 10 11 11 12 12 13 15 16 16 14 14 13 13 15 15 16 18
14 14 13 13 12 11 11 10 11 11 10 9 9 7 7 6 5 5 5 6 7 7 9 10 10 11 12 13 14 13 14 15 17 18 18 16 14 15 14 14 15 17 19
12 12 12 10 10 10 9 9 9 9 8 7 7 6 5 4 4 5 6 8 9 11 11 11 12 13 14 13 13 14 16 17 17 16 15 15 15 12 11 13 16 17 18
Wind_Direction
205 207 211 215 218 222 226 221 222 224 225 226 228 233 233 233 237 237 242 246 246 249 250 249 251 253 255 251 259 263 276 282 265 277 277 270 262 263 264 251 247 249 251
207 208 212 213 215 219 220 223 225 225 223 227 226 229 232 234 236 237 239 241 245 246 248 250 252 258 250 254 255 264 279 274 264 270 272 271 269 263 255 245 241 245 246
209 212 214 214 214 219 222 222 224 226 227 229 228 230 232 234 238 239 240 242 245 250 251 252 252 250 249 256 257 264 262 253 262 267 263 264 257 250 240 236 238 247 256
214 214 217 221 224 225 224 225 224 224 229 230 232 233 235 237 238 238 239 243 248 250 254 251 254 244 256 255 261 265 257 256 263 265 259 255 250 242 234 237 242 250 254
219 218 222 228 226 224 224 227 228 228 227 229 230 233 236 236 238 236 238 239 241 248 252 251 247 246 256 262 267 263 250 255 260 257 249 244 237 230 234 238 245 250 249
222 224 226 224 224 225 225 226 226 228 230 227 229 231 234 236 239 240 239 236 242 248 245 247 248 247 262 265 261 255 253 258 257 251 244 236 234 235 239 241 246 244 253
229 230 227 225 226 226 225 223 226 228 227 230 230 230 233 234 239 242 240 238 238 242 245 245 252 263 264 254 249 252 251 253 245 245 240 232 229 235 235 237 243 253 261
233 231 228 225 225 225 223 224 224 223 225 227 230 232 233 237 239 242 247 249 248 249 252 258 262 257 253 251 249 243 240 237 228 226 229 235 226 225 233 242 252 252 250
239 233 229 223 223 222 222 222 222 219 221 224 228 230 233 236 237 240 241 242 247 250 252 253 252 250 250 250 241 239 227 217 220 225 222 225 234 242 255 269 269 268 274
247 239 231 225 224 222 222 221 217 215 214 215 218 225 229 236 243 244 242 245 249 249 246 242 241 240 237 233 221 216 211 208 215 210 233 245 269 277 273 269 260 259 266
259 247 239 230 223 221 218 218 215 210 211 212 217 223 227 232 242 247 244 243 242 238 231 226 218 214 211 200 199 197 202 204 216 237 270 300 303 284 273 268 265 264 264
245 227 223 220 214 211 213 213 213 215 215 215 216 213 216 225 222 231 229 222 230 231 214 194 181 184 185 182 184 186 196 217 268 294 294 263 263 275 267 259 268 276 269
262 235 221 217 216 212 212 213 214 208 209 201 200 197 192 203 200 194 189 187 180 185 176 172 169 164 167 174 202 235 270 278 271 271 271 266 267 271 279 283 285 280 274
244 232 218 212 215 210 204 196 196 193 193 189 183 181 172 170 165 162 168 166 171 174 165 159 162 168 184 231 279 322 322 305 287 284 287 290 292 292 288 285 284 284 288
208 186 174 168 168 172 169 171 176 172 179 175 165 157 148 146 138 144 145 144 146 143 142 136 126 91 63 27 1 341 324 316 310 289 290 290 292 293 295 295 295 295 293
168 148 144 142 139 134 131 119 114 127 137 141 132 134 126 125 122 123 120 116 112 103 107 99 87 69 52 13 18 334 316 317 286 304 308 308 306 304 301 296 296 297 295
133 129 125 118 121 114 115 113 106 101 103 100 104 106 108 111 109 106 101 103 96 81 80 91 98 103 73 59 41 326 318 309 320 322 321 317 311 307 306 302 299 296 294
100 104 98 104 103 105 102 105 108 108 102 94 94 96 97 99 96 86 74 69 76 77 95 95 95 95 94 84 257 289 308 319 325 316 319 315 313 310 307 305 302 299 298
94 93 95 99 99 99 110 102 101 101 101 101 96 87 83 87 95 106 115 96 92 91 87 71 60 47 22 6 334 330 328 326 322 324 317 312 309 309 307 304 301 300 301
86 87 90 95 98 99 102 100 102 106 105 102 95 88 86 74 79 81 84 84 80 83 73 54 37 16 359 352 342 331 327 324 320 316 312 312 312 310 308 307 305 304 303
79 84 90 90 87 87 89 94 98 101 101 105 110 116 107 83 75 69 66 68 66 55 43 44 20 359 356 350 338 331 330 326 322 320 321 319 313 314 313 309 305 305 304
69 70 75 79 81 80 81 85 87 88 84 82 77 76 74 70 67 63 58 52 52 47 42 25 20 1 350 341 337 337 335 331 329 324 318 314 316 314 310 307 305 304 304
67 66 64 65 69 77 78 76 75 76 79 78 75 73 66 64 68 60 52 54 36 22 2 4 2 337 325 322 328 329 331 326 318 316 314 314 312 306 303 303 305 305 303
61 61 63 66 73 66 65 65 69 80 80 74 70 64 61 57 54 41 29 10 7 358 342 332 331 323 320 322 322 321 315 308 311 314 313 307 301 301 302 299 300 300 305
55 57 60 62 62 64 64 66 68 68 69 69 65 63 54 47 32 24 1 341 336 334 328 328 326 322 322 321 318 314 312 318 316 314 310 308 302 299 301 300 302 305 304
59 63 65 65 65 65 63 61 62 63 63 58 53 44 33 18 351 351 336 331 327 329 326 321 320 317 318 319 313 315 316 313 312 312 310 308 307 304 301 295 295 303 308